Hourly Data Report for June 07, 2021

SANIRAJAK AIRPORT
NUNAVUT
Current Station Operator: NAVCAN

68°46'33.000" N
81°14'33.000" W
9.10 m
2402354
71293
YUX

Download Data

Hourly Data (June 2021)
Hourly Data Report for June 7, 2021
TIME
LST
Temp Definition
°C
Dew Point Definition
°C
Rel Hum Definition
%
Precip. Amount Definition
mm

Wind Dir Definition
10's deg

Wind Spd Definition
km/h
Visibility Definition
km
Stn Press Definition
kPa
Hmdx Definition


Wind Chill Definition


Weather Definition


00:00 0.0 -0.3 98 0.0 36 9 16.1 101.07   -3 LegendNANA
01:00 0.0 -0.1 99 0.0 34 9 16.1 101.06   -3 LegendNANA
02:00 0.1 0.0 99 0.0 35 11 16.1 101.06     LegendNANA
03:00 0.2 0.1 99 0.0 34 13 16.1 101.04     LegendNANA
04:00 0.4 0.0 97 0.0 35 13 16.1 101.04     LegendNANA
05:00 0.7 0.1 96 0.0 36 17 16.1 101.01     LegendNANA
06:00 0.8 -0.1 94 0.2 1 17 16.1 101.02     LegendNANA
07:00 1.0 0.0 93 0.0 1 17 16.1 101.00     LegendNANA
08:00 1.0 0.0 93 0.0 1 18 16.1 100.97     LegendNANA
09:00 1.1 0.1 93 0.0 1 18 16.1 100.94     LegendNANA
10:00 1.2 0.1 92 0.0 1 18 16.1 100.95     LegendNANA
11:00 1.6 0.3 91 0.0 1 18 16.1 100.96     LegendNANA
12:00 1.7 0.4 91 0.0 1 22 16.1 100.94     LegendNANA
13:00 1.7 0.4 91 0.0 1 21 16.1 100.92     LegendNANA
14:00 1.7 0.4 91 0.0 1 22 16.1 100.93     LegendNANA
15:00 1.9 0.3 89 0.0 1 18 16.1 100.93     LegendNANA
16:00 1.8 0.3 90 0.0 1 17 16.1 100.96     LegendNANA
17:00 1.6 0.3 91 0.0 1 15 16.1 100.98     LegendNANA
18:00 1.7 0.2 90 0.0 35 15 16.1 101.00     LegendNANA
19:00 1.5 0.2 91 0.0 36 18 16.1 101.02     LegendNANA
20:00 1.4 0.1 91 0.0 1 18 16.1 101.02     LegendNANA
21:00 1.0 -0.2 92 0.0 36 17 16.1 101.02     LegendNANA
22:00 0.4 -0.3 95 0.0 35 17 16.1 101.01     LegendNANA
23:00 0.1 -0.8 94 0.0 35 18 16.1 100.99     LegendNANA

Notes on Data Quality.

Legend

  • E = Estimated
  • M = Missing
  • NA = Not Available*
  • [empty] = Indicates an unobserved value
Date modified: